{"data":{"norad_id":50197,"intl_designator":"2021-125AT","name":"STARLINK-3267","alt_names":[],"object_type":"PAYLOAD","status":"ACTIVE","operator":null,"country":"US","launch_date":"2021-12-18","launch_site_code":"AFWTR","launch_vehicle":null,"mission":null,"orbit_class":"UNKNOWN","rcs_meters":null,"size_class":null,"mass_kg":null,"dimensions":null,"purposes":["comms"],"wikipedia_slug":null,"has_3d_model":false,"image_url":null,"decayed_at":null,"tle_current":{"epoch":"2026-09-19T22:01:36.998112Z","epoch_age_seconds":95037,"freshness":"FRESH","line1":"1 50197U 21125AT  26262.91778933  .00002244  00000+0  77532-4 0  9997","line2":"2 50197  53.1606  76.1217 0001215  93.9212 266.1929 15.34393552266250","mean_motion":15.34393552,"eccentricity":0.0001215,"inclination_deg":53.1606,"raan_deg":76.1217,"arg_perigee_deg":93.9212,"mean_anomaly_deg":266.1929,"bstar":7.7532e-5,"rev_number":26625,"period_min":93.848152458868,"perigee_km":461.89124067135,"apogee_km":463.55356950679,"semimajor_km":6840.8594050891,"source":"CELESTRAK","updated_at":"2026-09-20T09:00:39.419408Z"}}}